Regional Weather Roundup
Issued by NWS

Home | Current Version | Previous Version | Text Only | Print | Product List | Glossary On
Versions: 1 2 3 4 5 6 7 8 9 10 11 12 13 14 15 16 17 18 19 20 21 22 23 24 25 26 27 28 29 30 31 32 33 34 35 36 37 38 39 40 41 42 43 44 45 46 47 48 49 50
000
ASUS42 KTBW 301210
RWRFL
FLORIDA REGIONAL WEATHER ROUNDUP
NATIONAL WEATHER SERVICE TAMPA BAY RUSKIN FL
800 AM EDT TUE SEP 30 2014

NOTE: "FAIR" INDICATES FEW OR NO CLOUDS BELOW 12,000 FEET WITH NO
SIGNIFICANT WEATHER AND/OR OBSTRUCTIONS TO VISIBILITY.


FLZ001>010-012>015-112-114-115-301300-
PANHANDLE FLORIDA

CITY           SKY/WX    TMP DP  RH WIND       PRES   REMARKS
PENSACOLA      NOT AVBL
VALPARAISO     CLOUDY    72  70  94 N3        29.89S
PANAMA CITY    NOT AVBL

STATION/POSITION SKY/WX   TEMP    WIND        PRES    WAVE   SWELL
                          AIR SEA DIR/SP/G            HT/PER HT/PER
                          (F)     (DEG/KT/KT) (MB)    (FT/S) (FT/S)
30.1N   87.6W              77 82   70/ 12/ 14 1011.2R   3/ 5
28.8N   86.0W              78 82   20/ 17/ 21 1009.0R   2/ 4
PANAMA CITY BEAC           72 80   20/  6/ 10 1011.5R
CAPE SAN BLAS    NOT AVBL
TOWER C                    76      50/ 14/ 16 1010.2R
28.5N   84.5W              81 83  220/ 10/ 12 1009.5R   1/ 5

$$
FLZ011-016>038-118-127-128-134-139-239-301300-
NORTH FLORIDA

CITY           SKY/WX    TMP DP  RH WIND       PRES   REMARKS
TALLAHASSEE    NOT AVBL
PERRY          CLOUDY    61  61 100 NE7       29.87R FOG
LAKE CITY      CLOUDY    70  70 100 NE6       29.87R FOG
GAINESVILLE    NOT AVBL
MAYPORT NAS    MOCLDY    76  73  91 N7        29.84R
JACKSONVILLE   CLOUDY    71  71 100 N9        29.85R FOG
JAX CECIL      NOT AVBL
FERNANDINA BEA CLOUDY    77  73  88 N9        29.83R

STATION/POSITION SKY/WX   TEMP    WIND        PRES    WAVE   SWELL
                          AIR SEA DIR/SP/G            HT/PER HT/PER
                          (F)     (DEG/KT/KT) (MB)    (FT/S) (FT/S)
SHELL POINT      NOT AVBL
KEATON BEACH               72      40/  3/  4 1011.0R
CEDAR KEY                  74      10/  2/  3 1010.8R
FERNANDINA                 72 78  360/ 11/ 16 1009.8R
30.7N   81.3W                 79                N/A     4/ 4
MAYPORT                    72 80  340/  8/ 12   N/A
31.4N   80.9W              74 79   30/ 17/ 21 1010.1R   5/ 6   2/ 8
ST AUGUSTINE               73     300/  3/  4 1010.7R

$$
FLZ040-043>046-052-053-057-058-063-144-301300-
INTERIOR CENTRAL FLORIDA

CITY           SKY/WX    TMP DP  RH WIND       PRES   REMARKS
THE VILLAGES   FOG       73  73 100 CALM      29.76R VSB 1/2
ORLANDO INTL   NOT AVBL
OKEECHOBEE       N/A     73  73 100 MISG        N/A

$$
FLZ041-047-054-059-064-141-147-301300-
EAST CENTRAL FLORIDA

CITY           SKY/WX    TMP DP  RH WIND       PRES   REMARKS
DAYTONA BEACH  NOT AVBL
DELAND         MOSUNNY   72  72 100 SW5       29.86R
JFK SPACE CTR  CLOUDY    75  73  94 W6        29.84S
MELBOURNE      NOT AVBL
FT PIERCE      PTCLDY    75  73  93 SW3       29.84S

STATION/POSITION SKY/WX   TEMP    WIND        PRES    WAVE   SWELL
                          AIR SEA DIR/SP/G            HT/PER HT/PER
                          (F)     (DEG/KT/KT) (MB)    (FT/S) (FT/S)
28.5N   80.2W              79 83  260/ 16/ 17 1010.3R
28.9N   78.5W              81 85  240/ 14/ 17 1009.4F
TRIDENT PIER               76 84  240/  5/  6 1010.1R
28.4N   80.5W                 83                N/A     2/ 9
27.6N   80.2W                 83                N/A     2/ 9

$$
FLZ050-056-061-142-242-148-248-149-249-151-251-155-255-
160-260-301300-
WEST CENTRAL FLORIDA

CITY           SKY/WX    TMP DP  RH WIND       PRES   REMARKS
CRYSTAL RIVER  FAIR      70  68  94 CALM      29.85R
INVERNESS      CLOUDY    68  46  45 CALM      29.85S HAZE
BROOKSVILLE    NOT AVBL
ZEPHYRHILLS    CLOUDY    66  66 100 CALM      29.86S
CLEARWATER     NOT AVBL
TAMPA INTL     PTCLDY    79  74  84 W6        29.85R
TAMPA EXEC     CLOUDY    73  72  94 CALM      29.85S FOG
PLANT CITY     CLOUDY    75 N/A N/A CALM      29.86S FOG
ST PETERSBURG  NOT AVBL
SARASOTA       NOT AVBL
VENICE         NOT AVBL

STATION/POSITION SKY/WX   TEMP    WIND        PRES    WAVE   SWELL
                          AIR SEA DIR/SP/G            HT/PER HT/PER
                          (F)     (DEG/KT/KT) (MB)    (FT/S) (FT/S)
CEDAR KEY                  74      10/  2/  3 1010.8R
28.5N   84.5W              81 83  220/ 10/ 12 1009.5R   1/ 5
27.3N   84.3W                 83                N/A     2/ 3
CLEARWATER BEACH NOT AVBL
MIDDLE TAMPA BAY           81     280/ 10/ 11 1010.6R
VENICE                     82 84  250/ 12/ 13 1010.1R

$$
FLZ066-069-070-075>078-162-262-165-265-301300-
SOUTHWEST FLORIDA AND KEYS

CITY           SKY/WX    TMP DP  RH WIND       PRES   REMARKS
FT MYERS       PTCLDY    76  75  97 CALM      29.85R
MARCO ISLAND   PTSUNNY   81  75  83 W6        29.85S
KEY WEST INTL  NOT AVBL

STATION/POSITION SKY/WX   TEMP    WIND        PRES    WAVE   SWELL
                          AIR SEA DIR/SP/G            HT/PER HT/PER
                          (F)     (DEG/KT/KT) (MB)    (FT/S) (FT/S)
VENICE                     82 84  250/ 12/ 13 1010.1R
NAPLES                     83 86  260/ 10/ 13 1011.4R
DRY TORTUGAS               83     220/  8/  9 1011.1R
NW FL BAY                  84     240/  8/  9 1011.0R
SAND KEY                   83     200/  5/  8 1011.2R
SOMBRERO KEY               83     230/  7/  8 1011.9R
LONG KEY                   83 86  220/  6/  8 1012.0R
MOLASSES REEF              83 85  200/  8/  9 1011.0R

$$
FLZ067-068-071>074-168-172>174-301300-
SOUTHEAST FLORIDA

CITY           SKY/WX    TMP DP  RH WIND       PRES   REMARKS
FT LAUDERDALE  NOT AVBL
MIAMI          NOT AVBL
HOMESTEAD      CLEAR     75  73  94 SW3       29.87R FOG

STATION/POSITION SKY/WX   TEMP    WIND        PRES    WAVE   SWELL
                          AIR SEA DIR/SP/G            HT/PER HT/PER
                          (F)     (DEG/KT/KT) (MB)    (FT/S) (FT/S)
PORT EVERGLADES            78     220/  3/  6 1011.1
VIRGINIA KEY               81 85  240/  8/  9 1011.5R
LAKE WORTH                 77 85  220/  5/  6 1010.5R
FOWEY ROCKS                82 84  230/  8/  9 1011.3R
SETTLEMENT POINT           82     240/  9/ 10 1011.3R

$$




USA.gov is the U.S. government's official web portal to all federal, state and local government web resources and services.